When you browse on this site, cookies collect data to enhance your experience and personalize the content and advertising you see.
Visit our Privacy Policy to learn more. By continuing to use the site, you agree to this use of cookies and data.
  • En España
  • Lista de países
  • Para 7 días
  • Temperatura del agua
  • Mapa Satelital
  • El tiempo en el mapa
  • Informadores
  • user-avatar
    Iniciar sesión

    Tiempo cada hora Encamp

    Hoy, 17 Diciembre, Lunes

    Tiempo Temperatura Precipitaciones Viento Presión Humedad
    00:00 -5°C° 0 mm 3 mps 623 mmHg 87%
    01:00 -5°C° 0 mm 3 mps 623 mmHg 86%
    02:00 -5°C° 0 mm 3 mps 624 mmHg 85%
    03:00 -5°C° 0 mm 3 mps 624 mmHg 84%
    04:00 -5°C° 0 mm 3 mps 624 mmHg 83%
    05:00 -5°C° 0 mm 3 mps 625 mmHg 83%
    06:00 -5°C° 0 mm 3 mps 625 mmHg 83%
    07:00 -4°C° 0 mm 3 mps 626 mmHg 80%
    08:00 -4°C° 0 mm 3 mps 627 mmHg 78%
    09:00 -2°C° 0 mm 3 mps 627 mmHg 75%
    10:00 +1°C° 0 mm 2 mps 628 mmHg 70%
    11:00 +2°C° 0 mm 2 mps 629 mmHg 65%
    12:00 +3°C° 0 mm 2 mps 629 mmHg 60%
    13:00 +3°C° 0 mm 2 mps 629 mmHg 62%
    14:00 +4°C° 0 mm 1 mps 629 mmHg 64%
    15:00 +3°C° 0 mm 1 mps 629 mmHg 67%
    16:00 +2°C° 0 mm 1 mps 629 mmHg 70%
    17:00 +1°C° 0 mm 1 mps 628 mmHg 73%
    18:00 0°C° 0 mm 1 mps 628 mmHg 76%
    19:00 0°C° 0 mm 1 mps 628 mmHg 75%
    20:00 -1°C° 0 mm 1 mps 628 mmHg 73%
    21:00 -1°C° 0 mm 1 mps 628 mmHg 71%
    22:00 -1°C° 0 mm 1 mps 628 mmHg 72%
    23:00 -1°C° 0 mm 1 mps 627 mmHg 74%

    Mañana, 18 Diciembre, Martes

    Tiempo Temperatura Precipitaciones Viento Presión Humedad
    00:00 -1°C° 0 mm 1 mps 627 mmHg 75%
    01:00 -1°C° 0 mm 1 mps 627 mmHg 74%
    02:00 -1°C° 0 mm 1 mps 626 mmHg 73%
    03:00 -1°C° 0 mm 1 mps 626 mmHg 71%
    04:00 -3°C° 0 mm 2 mps 625 mmHg 69%
    05:00 -3°C° 0 mm 2 mps 625 mmHg 67%
    06:00 -3°C° 0 mm 2 mps 625 mmHg 65%
    07:00 -2°C° 0 mm 2 mps 625 mmHg 61%
    08:00 -1°C° 0 mm 2 mps 625 mmHg 57%
    09:00 +1°C° 0 mm 2 mps 626 mmHg 54%
    10:00 +2°C° 0 mm 2 mps 626 mmHg 51%
    11:00 +3°C° 0 mm 3 mps 626 mmHg 49%
    12:00 +4°C° 0 mm 3 mps 626 mmHg 47%
    13:00 +4°C° 0 mm 3 mps 625 mmHg 49%
    14:00 +4°C° 0 mm 2 mps 625 mmHg 51%
    15:00 +4°C° 0 mm 2 mps 624 mmHg 53%
    16:00 +2°C° 0 mm 2 mps 624 mmHg 53%
    17:00 +1°C° 0 mm 2 mps 623 mmHg 54%
    18:00 -1°C° 0 mm 2 mps 623 mmHg 55%
    19:00 -1°C° 0 mm 2 mps 623 mmHg 56%
    20:00 -1°C° 0 mm 2 mps 623 mmHg 57%
    21:00 -1°C° 0 mm 2 mps 623 mmHg 58%
    22:00 -1°C° 0 mm 2 mps 623 mmHg 60%
    23:00 -1°C° 0 mm 2 mps 623 mmHg 61%

    Pasado mañana, 19 Diciembre, Miércoles

    Tiempo Temperatura Precipitaciones Viento Presión Humedad
    00:00 +1°C° 0 mm 1 mps 623 mmHg 63%
    01:00 +1°C° 0 mm 1 mps 623 mmHg 65%
    02:00 +1°C° 0 mm 1 mps 623 mmHg 67%
    03:00 +1°C° 0 mm 1 mps 623 mmHg 68%
    04:00 +1°C° 0 mm 1 mps 622 mmHg 71%
    05:00 0°C° 0 mm 1 mps 622 mmHg 73%
    06:00 0°C° 0 mm 1 mps 622 mmHg 75%
    07:00 0°C° 0 mm 1 mps 622 mmHg 74%
    08:00 0°C° 0 mm 0 mps 623 mmHg 73%
    09:00 +1°C° 0 mm 0 mps 623 mmHg 71%
    10:00 +3°C° 0 mm 1 mps 623 mmHg 69%
    11:00 +4°C° 0 mm 1 mps 624 mmHg 66%
    12:00 +4°C° 0 mm 2 mps 624 mmHg 63%
    13:00 +3°C° 0.2 mm 2 mps 623 mmHg 66%
    14:00 +3°C° 0.2 mm 2 mps 623 mmHg 68%
    15:00 +2°C° 0.2 mm 2 mps 623 mmHg 71%
    16:00 +1°C° 0.2 mm 2 mps 623 mmHg 76%
    17:00 -1°C° 0.2 mm 2 mps 623 mmHg 82%
    18:00 -2°C° 0.2 mm 2 mps 623 mmHg 87%
    19:00 -2°C° 0 mm 2 mps 623 mmHg 87%
    20:00 -3°C° 0 mm 2 mps 624 mmHg 87%
    21:00 -3°C° 0 mm 2 mps 624 mmHg 87%
    22:00 -4°C° 0 mm 2 mps 624 mmHg 84%
    23:00 -4°C° 0 mm 2 mps 624 mmHg 81%

    20 Diciembre, Jueves

    Tiempo Temperatura Precipitaciones Viento Presión Humedad
    00:00 -4°C° 0 mm 2 mps 624 mmHg 79%
    01:00 -4°C° 0 mm 2 mps 624 mmHg 78%
    02:00 -4°C° 0 mm 2 mps 624 mmHg 77%
    03:00 -4°C° 0 mm 2 mps 624 mmHg 75%
    04:00 -4°C° 0 mm 2 mps 625 mmHg 76%
    05:00 -4°C° 0 mm 2 mps 625 mmHg 76%
    06:00 -5°C° 0 mm 2 mps 625 mmHg 76%
    07:00 -2°C° 0 mm 1 mps 626 mmHg 73%
    08:00 -1°C° 0 mm 1 mps 627 mmHg 70%
    09:00 0°C° 0 mm 1 mps 627 mmHg 68%
    10:00 +2°C° 0 mm 1 mps 628 mmHg 64%
    11:00 +3°C° 0 mm 1 mps 628 mmHg 60%
    12:00 +4°C° 0 mm 1 mps 628 mmHg 56%
    13:00 +4°C° 0 mm 1 mps 628 mmHg 59%
    14:00 +4°C° 0 mm 1 mps 628 mmHg 62%
    15:00 +3°C° 0 mm 1 mps 628 mmHg 65%
    16:00 +2°C° 0 mm 1 mps 627 mmHg 71%
    17:00 0°C° 0 mm 1 mps 627 mmHg 77%
    18:00 -1°C° 0 mm 1 mps 627 mmHg 84%
    19:00 -1°C° 0 mm 1 mps 627 mmHg 82%
    20:00 -2°C° 0 mm 1 mps 627 mmHg 81%
    21:00 -2°C° 0 mm 1 mps 627 mmHg 79%
    22:00 -2°C° 0 mm 1 mps 627 mmHg 77%
    23:00 -2°C° 0 mm 1 mps 627 mmHg 75%

    21 Diciembre, Viernes

    Tiempo Temperatura Precipitaciones Viento Presión Humedad
    00:00 -2°C° 0 mm 1 mps 627 mmHg 73%
    01:00 -1°C° 0 mm 1 mps 627 mmHg 70%
    02:00 -1°C° 0 mm 1 mps 627 mmHg 68%
    03:00 -1°C° 0 mm 1 mps 626 mmHg 66%
    04:00 -1°C° 0 mm 1 mps 627 mmHg 63%
    05:00 0°C° 0 mm 1 mps 627 mmHg 60%
    06:00 0°C° 0 mm 1 mps 627 mmHg 57%
    07:00 +1°C° 0 mm 1 mps 628 mmHg 56%
    08:00 +2°C° 0 mm 1 mps 628 mmHg 54%
    09:00 +4°C° 0 mm 1 mps 629 mmHg 53%
    10:00 +5°C° 0 mm 1 mps 630 mmHg 52%
    11:00 +7°C° 0 mm 1 mps 630 mmHg 52%
    12:00 +8°C° 0 mm 1 mps 631 mmHg 51%
    13:00 +8°C° 0 mm 1 mps 630 mmHg 56%
    14:00 +7°C° 0 mm 1 mps 630 mmHg 62%
    15:00 +7°C° 0 mm 1 mps 630 mmHg 67%
    16:00 +6°C° 0 mm 1 mps 630 mmHg 72%
    17:00 +5°C° 0 mm 1 mps 629 mmHg 76%
    18:00 +4°C° 0 mm 1 mps 629 mmHg 80%
    19:00 +4°C° 0 mm 1 mps 630 mmHg 80%
    20:00 +4°C° 0 mm 1 mps 630 mmHg 81%
    21:00 +4°C° 0 mm 1 mps 630 mmHg 81%
    22:00 +4°C° 0 mm 1 mps 630 mmHg 81%
    23:00 +4°C° 0 mm 1 mps 630 mmHg 81%

    22 Diciembre, Sábado

    Tiempo Temperatura Precipitaciones Viento Presión Humedad
    00:00 +5°C° 0 mm 1 mps 630 mmHg 82%
    01:00 +5°C° 0 mm 1 mps 630 mmHg 83%
    02:00 +5°C° 0 mm 1 mps 630 mmHg 84%
    03:00 +5°C° 0 mm 1 mps 630 mmHg 85%
    04:00 +5°C° 0 mm 1 mps 630 mmHg 86%
    05:00 +5°C° 0 mm 1 mps 630 mmHg 86%
    06:00 +5°C° 0 mm 1 mps 630 mmHg 87%
    07:00 +5°C° 0 mm 1 mps 630 mmHg 85%
    08:00 +6°C° 0 mm 1 mps 631 mmHg 84%
    09:00 +6°C° 0 mm 1 mps 631 mmHg 82%
    10:00 +8°C° 0 mm 1 mps 632 mmHg 76%
    11:00 +9°C° 0 mm 1 mps 632 mmHg 71%
    12:00 +10°C° 0 mm 1 mps 632 mmHg 66%
    13:00 +10°C° 0 mm 1 mps 632 mmHg 69%
    14:00 +9°C° 0 mm 1 mps 632 mmHg 72%
    15:00 +9°C° 0 mm 1 mps 631 mmHg 75%
    16:00 +7°C° 0 mm 1 mps 631 mmHg 80%
    17:00 +6°C° 0 mm 1 mps 630 mmHg 84%
    18:00 +5°C° 0 mm 1 mps 630 mmHg 89%
    19:00 +4°C° 0 mm 1 mps 630 mmHg 88%
    20:00 +4°C° 0 mm 1 mps 630 mmHg 88%
    21:00 +4°C° 0 mm 1 mps 630 mmHg 87%
    22:00 +4°C° 0 mm 1 mps 630 mmHg 86%
    23:00 +4°C° 0 mm 1 mps 630 mmHg 85%
    Mostrar más